,,,PA_Meas_PMT16A,,PR_Meas_QMR101_102,,RH_Meas_QMH101,,SR_Meas_QMS101,,TA_Meas_QMH101,,GenWind,,GenWind,
date,time,status,PA,status,PR,status,RH,status,SR,status,TA,status,DirAvg,status,SpdAvg,
2011-01-27, 00:00:05,VALID,1010.69,VALID,0,VALID,103.047,VALID,0,VALID,22.9926,VALID,319,VALID,0.586719,
2011-01-27, 00:01:05,VALID,1010.68,VALID,0,VALID,103.047,VALID,0,VALID,22.9926,VALID,328,VALID,0.130078,
2011-01-27, 00:02:05,VALID,1010.72,VALID,0,VALID,103.016,VALID,0,VALID,23.0138,VALID,314,VALID,0.563281,
2011-01-27, 00:03:05,VALID,1010.69,VALID,0,VALID,103.024,VALID,0,VALID,23.0138,VALID,314,VALID,0.0121094,
2011-01-27, 00:04:05,VALID,1010.71,VALID,0,VALID,103.024,VALID,0,VALID,22.9926,VALID,314,VALID,0.0457031,
2011-01-27, 00:05:05,VALID,1010.75,VALID,0,VALID,103.016,VALID,0,VALID,22.9926,VALID,314,VALID,0.126563,
2011-01-27, 00:06:05,VALID,1010.73,VALID,0,VALID,103.047,VALID,0,VALID,22.9926,VALID,314,VALID,0.244922,
2011-01-27, 00:07:05,VALID,1010.75,VALID,0,VALID,103.009,VALID,0,VALID,22.9926,VALID,314,VALID,0,
2011-01-27, 00:08:05,VALID,1010.74,VALID,0,VALID,103.016,VALID,0,VALID,22.9926,VALID,314,VALID,0.119922,
2011-01-27, 00:09:05,VALID,1010.79,VALID,0,VALID,103.032,VALID,0,VALID,22.9749,VALID,314,VALID,0,
2011-01-27, 00:10:05,VALID,1010.72,VALID,0,VALID,103.024,VALID,0,VALID,22.9536,VALID,314,VALID,0.003125,
2011-01-27, 00:11:05,VALID,1010.72,VALID,0,VALID,102.993,VALID,0.105969,VALID,22.9926,VALID,314,VALID,0.230859,
2011-01-27, 00:12:05,VALID,1010.7,VALID,0,VALID,102.993,VALID,0,VALID,22.9714,VALID,314,VALID,0,
2011-01-27, 00:13:05,VALID,1010.67,VALID,0,VALID,102.986,VALID,0.105969,VALID,22.9714,VALID,314,VALID,0,
2011-01-27, 00:14:05,VALID,1010.66,VALID,0,VALID,102.993,VALID,0,VALID,22.9926,VALID,314,VALID,0,
2011-01-27, 00:15:05,VALID,1010.67,VALID,0,VALID,103.009,VALID,0.105969,VALID,22.9714,VALID,314,VALID,0,
2011-01-27, 00:16:05,VALID,1010.67,VALID,0,VALID,102.978,VALID,0.105969,VALID,22.9926,VALID,314,VALID,0,
2011-01-27, 00:17:05,VALID,1010.65,VALID,0,VALID,102.993,VALID,0.105969,VALID,22.9714,VALID,314,VALID,0.128125,
2011-01-27, 00:18:05,VALID,1010.63,VALID,0,VALID,103.024,VALID,0.105969,VALID,22.9714,VALID,314,VALID,0.239063,
2011-01-27, 00:19:05,VALID,1010.58,VALID,0,VALID,103.032,VALID,0.105969,VALID,22.9519,VALID,314,VALID,0.119141,
2011-01-27, 00:20:05,VALID,1010.6,VALID,0,VALID,103.039,VALID,0.105969,VALID,22.9324,VALID,314,VALID,0,
2011-01-27, 00:21:05,VALID,1010.55,VALID,0,VALID,103.039,VALID,0,VALID,22.9536,VALID,314,VALID,0,
2011-01-27, 00:22:05,VALID,1010.53,VALID,0,VALID,103.032,VALID,0.105969,VALID,22.9324,VALID,314,VALID,0,
2011-01-27, 00:23:05,VALID,1010.5,VALID,0,VALID,103.024,VALID,0.105969,VALID,22.9324,VALID,314,VALID,0,
2011-01-27, 00:24:05,VALID,1010.49,VALID,0,VALID,103.039,VALID,0.105969,VALID,22.9324,VALID,314,VALID,0,
2011-01-27, 00:25:05,VALID,1010.46,VALID,0,VALID,103.047,VALID,0.105969,VALID,22.9129,VALID,314,VALID,0,
2011-01-27, 00:26:05,VALID,1010.41,VALID,0,VALID,103.047,VALID,0,VALID,22.8952,VALID,314,VALID,0,
2011-01-27, 00:27:05,VALID,1010.42,VALID,0,VALID,103.016,VALID,0,VALID,22.8952,VALID,314,VALID,0,
2011-01-27, 00:28:05,VALID,1010.39,VALID,0,VALID,103.024,VALID,0,VALID,22.9164,VALID,314,VALID,0,
2011-01-27, 00:29:05,VALID,1010.39,VALID,0,VALID,103.009,VALID,0,VALID,22.9147,VALID,314,VALID,0,
2011-01-27, 00:30:05,VALID,1010.39,VALID,0,VALID,102.986,VALID,0,VALID,22.9147,VALID,314,VALID,0,
2011-01-27, 00:31:05,VALID,1010.4,VALID,0,VALID,103.001,VALID,0,VALID,22.9359,VALID,314,VALID,0,
2011-01-27, 00:32:05,VALID,1010.39,VALID,0,VALID,102.978,VALID,0,VALID,22.9147,VALID,314,VALID,0,
2011-01-27, 00:33:05,VALID,1010.42,VALID,0,VALID,102.993,VALID,0,VALID,22.9147,VALID,314,VALID,0,
2011-01-27, 00:34:05,VALID,1010.41,VALID,0,VALID,102.993,VALID,0,VALID,22.9147,VALID,314,VALID,0,
2011-01-27, 00:35:05,VALID,1010.38,VALID,0,VALID,102.978,VALID,0,VALID,22.9359,VALID,314,VALID,0,
2011-01-27, 00:36:05,VALID,1010.36,VALID,0,VALID,102.971,VALID,0,VALID,22.9147,VALID,314,VALID,0,
2011-01-27, 00:37:05,VALID,1010.35,VALID,0,VALID,102.986,VALID,0,VALID,22.9147,VALID,314,VALID,0,
2011-01-27, 00:38:05,VALID,1010.34,VALID,0,VALID,102.986,VALID,0,VALID,22.9359,VALID,314,VALID,0,
2011-01-27, 00:39:05,VALID,1010.33,VALID,0,VALID,102.932,VALID,0,VALID,22.9519,VALID,314,VALID,0,
2011-01-27, 00:40:05,VALID,1010.33,VALID,0,VALID,102.932,VALID,0,VALID,22.9342,VALID,314,VALID,0,
2011-01-27, 00:41:05,VALID,1010.35,VALID,0,VALID,102.94,VALID,0,VALID,22.9536,VALID,314,VALID,0,
2011-01-27, 00:42:05,VALID,1010.36,VALID,0,VALID,102.932,VALID,0,VALID,22.9536,VALID,314,VALID,0,
2011-01-27, 00:43:05,VALID,1010.39,VALID,0,VALID,102.932,VALID,0,VALID,22.9536,VALID,314,VALID,0,
2011-01-27, 00:44:05,VALID,1010.39,VALID,0,VALID,102.955,VALID,0,VALID,22.9342,VALID,314,VALID,0,
2011-01-27, 00:45:05,VALID,1010.37,VALID,0,VALID,102.978,VALID,0,VALID,22.9536,VALID,314,VALID,0.458984,
2011-01-27, 00:46:05,VALID,1010.38,VALID,0,VALID,102.971,VALID,0,VALID,22.9342,VALID,314,VALID,0.471875,
2011-01-27, 00:47:05,VALID,1010.38,VALID,0,VALID,103.001,VALID,0,VALID,22.9359,VALID,314,VALID,0.519922,
2011-01-27, 00:48:05,VALID,1010.36,VALID,0,VALID,103.016,VALID,0,VALID,22.8952,VALID,314,VALID,0.329688,
2011-01-27, 00:49:05,VALID,1010.35,VALID,0,VALID,103.024,VALID,0,VALID,22.8757,VALID,314,VALID,0.125781,
2011-01-27, 00:50:05,VALID,1010.32,VALID,0,VALID,103.016,VALID,0,VALID,22.8562,VALID,314,VALID,0,
2011-01-27, 00:51:05,VALID,1010.27,VALID,0,VALID,103.009,VALID,0,VALID,22.8368,VALID,314,VALID,0,
2011-01-27, 00:52:05,VALID,1010.26,VALID,0,VALID,103.032,VALID,0,VALID,22.8368,VALID,314,VALID,0,
2011-01-27, 00:53:05,VALID,1010.25,VALID,0,VALID,103.024,VALID,0,VALID,22.8173,VALID,314,VALID,0,
2011-01-27, 00:54:05,VALID,1010.19,VALID,0,VALID,103.001,VALID,0,VALID,22.8368,VALID,314,VALID,0,
2011-01-27, 00:55:05,VALID,1010.18,VALID,0,VALID,102.971,VALID,0,VALID,22.8368,VALID,314,VALID,0,
2011-01-27, 00:56:05,VALID,1010.16,VALID,0,VALID,103.001,VALID,0,VALID,22.858,VALID,314,VALID,0,
2011-01-27, 00:57:05,VALID,1010.16,VALID,0,VALID,103.024,VALID,0,VALID,22.7978,VALID,314,VALID,0,
2011-01-27, 00:58:05,VALID,1010.18,VALID,0,VALID,103.001,VALID,0,VALID,22.7978,VALID,314,VALID,0,
2011-01-27, 00:59:05,VALID,1010.14,VALID,0,VALID,103.016,VALID,0,VALID,22.7995,VALID,314,VALID,0,
2011-01-27, 01:00:05,VALID,1010.09,VALID,0,VALID,103.001,VALID,0,VALID,22.7783,VALID,314,VALID,0,
2011-01-27, 01:01:05,VALID,1010.11,VALID,0,VALID,103.009,VALID,0,VALID,22.7783,VALID,314,VALID,0,
2011-01-27, 01:02:05,VALID,1010.12,VALID,0,VALID,102.986,VALID,0,VALID,22.7783,VALID,314,VALID,0,
2011-01-27, 01:03:05,VALID,1010.15,VALID,0,VALID,103.001,VALID,0,VALID,22.7783,VALID,314,VALID,0,
2011-01-27, 01:04:05,VALID,1010.14,VALID,0,VALID,102.978,VALID,0,VALID,22.7783,VALID,314,VALID,0,
2011-01-27, 01:05:05,VALID,1010.14,VALID,0,VALID,102.978,VALID,0,VALID,22.7783,VALID,314,VALID,0,
2011-01-27, 01:06:05,VALID,1010.14,VALID,0,VALID,102.986,VALID,0,VALID,22.7588,VALID,314,VALID,0,
2011-01-27, 01:07:05,VALID,1010.18,VALID,0,VALID,102.971,VALID,0,VALID,22.78,VALID,314,VALID,0,
2011-01-27, 01:08:05,VALID,1010.14,VALID,0,VALID,102.963,VALID,0,VALID,22.7783,VALID,314,VALID,0,
2011-01-27, 01:09:05,VALID,1010.16,VALID,0,VALID,102.94,VALID,0,VALID,22.7588,VALID,314,VALID,0,
2011-01-27, 01:10:05,VALID,1010.15,VALID,0,VALID,102.948,VALID,0,VALID,22.7783,VALID,314,VALID,0,
2011-01-27, 01:11:05,VALID,1010.17,VALID,0,VALID,102.971,VALID,0.105969,VALID,22.7766,VALID,314,VALID,0,
2011-01-27, 01:12:05,VALID,1010.15,VALID,0,VALID,102.94,VALID,0,VALID,22.7571,VALID,314,VALID,0,
2011-01-27, 01:13:05,VALID,1010.16,VALID,0,VALID,102.917,VALID,0.105969,VALID,22.7978,VALID,314,VALID,0,
2011-01-27, 01:14:05,VALID,1010.18,VALID,0,VALID,102.955,VALID,0.105969,VALID,22.7571,VALID,314,VALID,0,
2011-01-27, 01:15:05,VALID,1010.22,VALID,0,VALID,102.963,VALID,0,VALID,22.7571,VALID,314,VALID,0,
2011-01-27, 01:16:05,VALID,1010.24,VALID,0,VALID,102.963,VALID,0.105969,VALID,22.7571,VALID,314,VALID,0,
2011-01-27, 01:17:05,VALID,1010.27,VALID,0,VALID,102.955,VALID,0.105969,VALID,22.7571,VALID,314,VALID,0,
2011-01-27, 01:18:05,VALID,1010.27,VALID,0,VALID,102.94,VALID,0,VALID,22.7571,VALID,314,VALID,0,
2011-01-27, 01:19:05,VALID,1010.29,VALID,0,VALID,102.932,VALID,0.105969,VALID,22.7571,VALID,314,VALID,0,
2011-01-27, 01:20:05,VALID,1010.27,VALID,0,VALID,102.963,VALID,0,VALID,22.7571,VALID,314,VALID,0,
2011-01-27, 01:21:05,VALID,1010.3,VALID,0,VALID,102.955,VALID,0.105969,VALID,22.7766,VALID,314,VALID,0,
2011-01-27, 01:22:05,VALID,1010.3,VALID,0,VALID,102.955,VALID,0.105969,VALID,22.7376,VALID,314,VALID,0,
2011-01-27, 01:23:05,VALID,1010.29,VALID,0,VALID,102.971,VALID,0.105969,VALID,22.7571,VALID,314,VALID,0,
2011-01-27, 01:24:05,VALID,1010.3,VALID,0,VALID,102.948,VALID,0,VALID,22.7376,VALID,314,VALID,0,
2011-01-27, 01:25:05,VALID,1010.29,VALID,0,VALID,102.94,VALID,0.105969,VALID,22.7376,VALID,314,VALID,0,
2011-01-27, 01:26:05,VALID,1010.26,VALID,0,VALID,102.963,VALID,0,VALID,22.7394,VALID,314,VALID,0,
2011-01-27, 01:27:05,VALID,1010.25,VALID,0,VALID,102.955,VALID,0,VALID,22.7394,VALID,314,VALID,0,
2011-01-27, 01:28:05,VALID,1010.27,VALID,0,VALID,102.948,VALID,0,VALID,22.7394,VALID,314,VALID,0,
2011-01-27, 01:29:05,VALID,1010.26,VALID,0,VALID,102.94,VALID,0,VALID,22.7606,VALID,314,VALID,0,
2011-01-27, 01:30:05,VALID,1010.28,VALID,0,VALID,102.963,VALID,0,VALID,22.7199,VALID,314,VALID,0,
2011-01-27, 01:31:05,VALID,1010.29,VALID,0,VALID,102.932,VALID,0,VALID,22.7199,VALID,314,VALID,0,
2011-01-27, 01:32:05,VALID,1010.28,VALID,0,VALID,102.955,VALID,0,VALID,22.7199,VALID,314,VALID,0.130859,
2011-01-27, 01:33:05,VALID,1010.31,VALID,0,VALID,102.955,VALID,0,VALID,22.7004,VALID,314,VALID,0,
2011-01-27, 01:34:05,VALID,1010.31,VALID,0,VALID,102.955,VALID,0,VALID,22.6809,VALID,314,VALID,0,
2011-01-27, 01:35:05,VALID,1010.32,VALID,0,VALID,102.963,VALID,0,VALID,22.7021,VALID,314,VALID,0,
2011-01-27, 01:36:05,VALID,1010.34,VALID,0,VALID,102.94,VALID,0,VALID,22.6809,VALID,314,VALID,0,
2011-01-27, 01:37:05,VALID,1010.33,VALID,0,VALID,102.91,VALID,0,VALID,22.7004,VALID,314,VALID,0,
2011-01-27, 01:38:05,VALID,1010.34,VALID,0,VALID,102.917,VALID,0,VALID,22.7216,VALID,314,VALID,0,
2011-01-27, 01:39:05,VALID,1010.32,VALID,0,VALID,102.887,VALID,0,VALID,22.7199,VALID,314,VALID,0,
2011-01-27, 01:40:05,VALID,1010.33,VALID,0,VALID,102.902,VALID,0,VALID,22.7411,VALID,314,VALID,0,
2011-01-27, 01:41:05,VALID,1010.31,VALID,0,VALID,102.871,VALID,0.105969,VALID,22.7588,VALID,314,VALID,0,
2011-01-27, 01:42:05,VALID,1010.32,VALID,0,VALID,102.91,VALID,0.105969,VALID,22.7376,VALID,314,VALID,0,
2011-01-27, 01:43:05,VALID,1010.3,VALID,0,VALID,102.917,VALID,0.105969,VALID,22.7182,VALID,314,VALID,0,
2011-01-27, 01:44:05,VALID,1010.3,VALID,0,VALID,102.91,VALID,0.105969,VALID,22.7376,VALID,314,VALID,0,
2011-01-27, 01:45:05,VALID,1010.3,VALID,0,VALID,102.871,VALID,0.105969,VALID,22.7571,VALID,314,VALID,0,
2011-01-27, 01:46:05,VALID,1010.28,VALID,0,VALID,102.856,VALID,0.105969,VALID,22.7961,VALID,340,VALID,0.376563,
2011-01-27, 01:47:05,VALID,1010.29,VALID,0,VALID,102.849,VALID,0.105969,VALID,22.7766,VALID,340,VALID,0,
2011-01-27, 01:48:05,VALID,1010.26,VALID,0,VALID,102.864,VALID,0.105969,VALID,22.7978,VALID,340,VALID,0,
2011-01-27, 01:49:05,VALID,1010.26,VALID,0,VALID,102.833,VALID,0.105969,VALID,22.7961,VALID,340,VALID,0,
2011-01-27, 01:50:05,VALID,1010.26,VALID,0,VALID,102.833,VALID,0.105969,VALID,22.7961,VALID,340,VALID,0,
2011-01-27, 01:51:05,VALID,1010.27,VALID,0,VALID,102.871,VALID,0.105969,VALID,22.7766,VALID,340,VALID,0.439453,
2011-01-27, 01:52:05,VALID,1010.24,VALID,0,VALID,102.917,VALID,0.105969,VALID,22.7783,VALID,340,VALID,0.382813,
2011-01-27, 01:53:05,VALID,1010.25,VALID,0,VALID,102.932,VALID,0.105969,VALID,22.7571,VALID,340,VALID,0,
2011-01-27, 01:54:05,VALID,1010.23,VALID,0,VALID,102.91,VALID,0.105969,VALID,22.7783,VALID,340,VALID,0,
2011-01-27, 01:55:05,VALID,1010.25,VALID,0,VALID,102.894,VALID,0.105969,VALID,22.7766,VALID,340,VALID,0,
2011-01-27, 01:56:05,VALID,1010.2,VALID,0,VALID,102.856,VALID,0,VALID,22.7783,VALID,340,VALID,0,
2011-01-27, 01:57:05,VALID,1010.22,VALID,0,VALID,102.879,VALID,0,VALID,22.819,VALID,340,VALID,0.101563,
2011-01-27, 01:58:05,VALID,1010.23,VALID,0,VALID,102.879,VALID,0,VALID,22.7783,VALID,340,VALID,0.0789063,
2011-01-27, 01:59:05,VALID,1010.24,VALID,0,VALID,102.818,VALID,0,VALID,22.8368,VALID,340,VALID,0.239844,
2011-01-27, 02:00:05,VALID,1010.23,VALID,0,VALID,102.818,VALID,0,VALID,22.8562,VALID,340,VALID,0.4875,
2011-01-27, 02:01:05,VALID,1010.24,VALID,0,VALID,102.833,VALID,0,VALID,22.8562,VALID,340,VALID,0.300391,
2011-01-27, 02:02:05,VALID,1010.18,VALID,0,VALID,102.795,VALID,0,VALID,22.8757,VALID,340,VALID,0,
2011-01-27, 02:03:05,VALID,1010.18,VALID,0,VALID,102.78,VALID,0,VALID,22.9164,VALID,340,VALID,0,
2011-01-27, 02:04:05,VALID,1010.14,VALID,0,VALID,102.788,VALID,0,VALID,22.8952,VALID,340,VALID,0,
2011-01-27, 02:05:05,VALID,1010.08,VALID,0,VALID,102.803,VALID,0,VALID,22.8757,VALID,340,VALID,0,
2011-01-27, 02:06:05,VALID,1010.06,VALID,0,VALID,102.818,VALID,0,VALID,22.8757,VALID,340,VALID,0,
2011-01-27, 02:07:05,VALID,1010.02,VALID,0,VALID,102.81,VALID,0,VALID,22.8757,VALID,340,VALID,0.107422,
2011-01-27, 02:08:05,VALID,1009.97,VALID,0,VALID,102.818,VALID,0,VALID,22.8952,VALID,340,VALID,0.523047,
2011-01-27, 02:09:05,VALID,1009.93,VALID,0,VALID,102.849,VALID,0,VALID,22.8757,VALID,340,VALID,0.214062,
2011-01-27, 02:10:05,VALID,1009.9,VALID,0,VALID,102.871,VALID,0,VALID,22.8562,VALID,340,VALID,0.101563,
2011-01-27, 02:11:05,VALID,1009.86,VALID,0,VALID,102.871,VALID,0.105969,VALID,22.8757,VALID,340,VALID,0,
2011-01-27, 02:12:05,VALID,1009.86,VALID,0,VALID,102.864,VALID,0.105969,VALID,22.8545,VALID,340,VALID,0,
2011-01-27, 02:13:05,VALID,1009.8,VALID,0,VALID,102.841,VALID,0.105969,VALID,22.8545,VALID,340,VALID,0,
2011-01-27, 02:14:05,VALID,1009.76,VALID,0,VALID,102.849,VALID,0,VALID,22.8562,VALID,340,VALID,0,
2011-01-27, 02:15:05,VALID,1009.72,VALID,0,VALID,102.864,VALID,0,VALID,22.835,VALID,340,VALID,0,
2011-01-27, 02:16:05,VALID,1009.69,VALID,0,VALID,102.871,VALID,0.105969,VALID,22.835,VALID,340,VALID,0,
2011-01-27, 02:17:05,VALID,1009.66,VALID,0,VALID,102.856,VALID,0.105969,VALID,22.835,VALID,340,VALID,0,
2011-01-27, 02:18:05,VALID,1009.63,VALID,0,VALID,102.849,VALID,0.105969,VALID,22.835,VALID,340,VALID,0,
2011-01-27, 02:19:05,VALID,1009.61,VALID,0,VALID,102.849,VALID,0.105969,VALID,22.835,VALID,340,VALID,0,
2011-01-27, 02:20:05,VALID,1009.61,VALID,0,VALID,102.849,VALID,0.105969,VALID,22.8562,VALID,340,VALID,0,
2011-01-27, 02:21:05,VALID,1009.59,VALID,0,VALID,102.856,VALID,0.105969,VALID,22.835,VALID,340,VALID,0,
2011-01-27, 02:22:05,VALID,1009.57,VALID,0,VALID,102.864,VALID,0.105969,VALID,22.835,VALID,340,VALID,0,
2011-01-27, 02:23:05,VALID,1009.55,VALID,0,VALID,102.818,VALID,0.105969,VALID,22.835,VALID,340,VALID,0,
2011-01-27, 02:24:05,VALID,1009.52,VALID,0,VALID,102.833,VALID,0.105969,VALID,22.8545,VALID,340,VALID,0,
2011-01-27, 02:25:05,VALID,1009.46,VALID,0,VALID,102.833,VALID,0.105969,VALID,22.8562,VALID,340,VALID,0,
2011-01-27, 02:26:05,VALID,1009.44,VALID,0,VALID,102.833,VALID,0,VALID,22.835,VALID,340,VALID,0,
2011-01-27, 02:27:05,VALID,1009.45,VALID,0,VALID,102.833,VALID,0.105969,VALID,22.8562,VALID,340,VALID,0,
2011-01-27, 02:28:05,VALID,1009.42,VALID,0,VALID,102.803,VALID,0,VALID,22.8757,VALID,340,VALID,0,
2011-01-27, 02:29:05,VALID,1009.4,VALID,0,VALID,102.803,VALID,0,VALID,22.874,VALID,340,VALID,0,
2011-01-27, 02:30:05,VALID,1009.41,VALID,0,VALID,102.788,VALID,0,VALID,22.874,VALID,340,VALID,0,
2011-01-27, 02:31:05,VALID,1009.4,VALID,0,VALID,102.81,VALID,0,VALID,22.874,VALID,340,VALID,0,
2011-01-27, 02:32:05,VALID,1009.39,VALID,0,VALID,102.803,VALID,0.105969,VALID,22.8952,VALID,249,VALID,0,
2011-01-27, 02:33:05,VALID,1009.38,VALID,0,VALID,102.795,VALID,0,VALID,22.874,VALID,249,VALID,0.542578,
2011-01-27, 02:34:05,VALID,1009.36,VALID,0,VALID,102.78,VALID,0,VALID,22.9147,VALID,249,VALID,0.419141,
2011-01-27, 02:35:05,VALID,1009.35,VALID,0,VALID,102.765,VALID,0.105969,VALID,22.9324,VALID,249,VALID,0.159766,
2011-01-27, 02:36:05,VALID,1009.3,VALID,0,VALID,102.772,VALID,0.105969,VALID,22.9519,VALID,249,VALID,0,
2011-01-27, 02:37:05,VALID,1009.33,VALID,0,VALID,102.742,VALID,0,VALID,22.9714,VALID,249,VALID,0,
2011-01-27, 02:38:05,VALID,1009.32,VALID,0,VALID,102.727,VALID,0.105969,VALID,22.9714,VALID,249,VALID,0.387109,
2011-01-27, 02:39:05,VALID,1009.34,VALID,0,VALID,102.734,VALID,0.105969,VALID,22.9714,VALID,249,VALID,0.260547,
2011-01-27, 02:40:04,VALID,1009.36,VALID,0,VALID,102.757,VALID,0,VALID,22.9714,VALID,249,VALID,0.180469,
2011-01-27, 02:41:04,VALID,1009.33,VALID,0,VALID,102.734,VALID,0.105969,VALID,23.0121,VALID,249,VALID,0.144922,
2011-01-27, 02:42:04,VALID,1009.35,VALID,0,VALID,102.727,VALID,0,VALID,23.0316,VALID,249,VALID,0,
2011-01-27, 02:43:04,VALID,1009.33,VALID,0,VALID,102.749,VALID,0,VALID,22.9909,VALID,249,VALID,0,
2011-01-27, 02:44:04,VALID,1009.34,VALID,0,VALID,102.749,VALID,0.105969,VALID,23.0121,VALID,249,VALID,0,
2011-01-27, 02:45:04,VALID,1009.35,VALID,0,VALID,102.742,VALID,0,VALID,23.0103,VALID,249,VALID,0,
2011-01-27, 02:46:04,VALID,1009.34,VALID,0,VALID,102.772,VALID,0.105969,VALID,22.9909,VALID,249,VALID,0,
2011-01-27, 02:47:04,VALID,1009.36,VALID,0,VALID,102.765,VALID,0,VALID,23.0103,VALID,249,VALID,0,
2011-01-27, 02:48:04,VALID,1009.33,VALID,0,VALID,102.78,VALID,0.105969,VALID,23.0121,VALID,249,VALID,0,
2011-01-27, 02:49:04,VALID,1009.33,VALID,0,VALID,102.765,VALID,0.105969,VALID,23.0511,VALID,249,VALID,0,
2011-01-27, 02:50:04,VALID,1009.31,VALID,0,VALID,102.749,VALID,0,VALID,23.0511,VALID,249,VALID,0,
2011-01-27, 02:51:04,VALID,1009.32,VALID,0,VALID,102.719,VALID,0,VALID,23.0493,VALID,249,VALID,0,
2011-01-27, 02:52:04,VALID,1009.34,VALID,0,VALID,102.742,VALID,0.105969,VALID,23.0511,VALID,249,VALID,0,
2011-01-27, 02:53:04,VALID,1009.33,VALID,0,VALID,102.757,VALID,0,VALID,23.0103,VALID,249,VALID,0,
2011-01-27, 02:54:04,VALID,1009.32,VALID,0,VALID,102.757,VALID,0.105969,VALID,23.0316,VALID,249,VALID,0,
2011-01-27, 02:55:04,VALID,1009.32,VALID,0,VALID,102.772,VALID,0,VALID,23.0316,VALID,249,VALID,0,
2011-01-27, 02:56:04,VALID,1009.29,VALID,0,VALID,102.749,VALID,0,VALID,23.0298,VALID,249,VALID,0,
2011-01-27, 02:57:04,VALID,1009.25,VALID,0,VALID,102.749,VALID,0,VALID,23.0298,VALID,249,VALID,0,
2011-01-27, 02:58:04,VALID,1009.26,VALID,0,VALID,102.727,VALID,0.105969,VALID,23.0511,VALID,249,VALID,0,
2011-01-27, 02:59:04,VALID,1009.25,VALID,0,VALID,102.749,VALID,0,VALID,23.0298,VALID,249,VALID,0,
2011-01-27, 03:00:04,VALID,1009.25,VALID,0,VALID,102.749,VALID,0.105969,VALID,23.0511,VALID,249,VALID,0,
2011-01-27, 03:01:04,VALID,1009.24,VALID,0,VALID,102.749,VALID,0,VALID,23.0511,VALID,249,VALID,0,
2011-01-27, 03:02:04,VALID,1009.22,VALID,0,VALID,102.734,VALID,0,VALID,23.0511,VALID,249,VALID,0,
2011-01-27, 03:03:04,VALID,1009.21,VALID,0,VALID,102.704,VALID,0,VALID,23.09,VALID,249,VALID,0,
2011-01-27, 03:04:04,VALID,1009.21,VALID,0,VALID,102.688,VALID,0,VALID,23.0883,VALID,249,VALID,0,
2011-01-27, 03:05:04,VALID,1009.2,VALID,0,VALID,102.673,VALID,0,VALID,23.1095,VALID,249,VALID,0,
2011-01-27, 03:06:04,VALID,1009.19,VALID,0,VALID,102.688,VALID,0,VALID,23.1095,VALID,249,VALID,0,
2011-01-27, 03:07:04,VALID,1009.2,VALID,0,VALID,102.681,VALID,0,VALID,23.1485,VALID,249,VALID,0,
2011-01-27, 03:08:04,VALID,1009.19,VALID,0,VALID,102.681,VALID,0.105969,VALID,23.129,VALID,249,VALID,0,
2011-01-27, 03:09:04,VALID,1009.22,VALID,0,VALID,102.688,VALID,0,VALID,23.1077,VALID,249,VALID,0,
2011-01-27, 03:10:04,VALID,1009.21,VALID,0,VALID,102.696,VALID,0,VALID,23.1485,VALID,249,VALID,0,
2011-01-27, 03:11:04,VALID,1009.19,VALID,0,VALID,102.719,VALID,0.105969,VALID,23.129,VALID,249,VALID,0,
2011-01-27, 03:12:04,VALID,1009.17,VALID,0,VALID,102.719,VALID,0.105969,VALID,23.129,VALID,249,VALID,0,
2011-01-27, 03:13:04,VALID,1009.14,VALID,0,VALID,102.742,VALID,0,VALID,23.1095,VALID,249,VALID,0,
2011-01-27, 03:14:04,VALID,1009.11,VALID,0,VALID,102.742,VALID,0.105969,VALID,23.1095,VALID,249,VALID,0,
2011-01-27, 03:15:04,VALID,1009.06,VALID,0,VALID,102.78,VALID,0,VALID,23.0688,VALID,249,VALID,0,
2011-01-27, 03:16:04,VALID,1009.03,VALID,0,VALID,102.78,VALID,0,VALID,23.09,VALID,249,VALID,0,
2011-01-27, 03:17:04,VALID,1009.01,VALID,0,VALID,102.742,VALID,0,VALID,23.0688,VALID,249,VALID,0,
2011-01-27, 03:18:04,VALID,1009.01,VALID,0,VALID,102.749,VALID,0,VALID,23.0688,VALID,249,VALID,0.56875,
2011-01-27, 03:19:04,VALID,1009.02,VALID,0,VALID,102.757,VALID,0,VALID,23.09,VALID,248,VALID,0.767187,
2011-01-27, 03:20:04,VALID,1008.95,VALID,0,VALID,102.803,VALID,0.105969,VALID,23.0511,VALID,83,VALID,0.592188,
2011-01-27, 03:21:04,VALID,1008.98,VALID,0,VALID,102.742,VALID,0,VALID,23.0688,VALID,83,VALID,0.220703,
2011-01-27, 03:22:04,VALID,1008.97,VALID,0,VALID,102.757,VALID,0.105969,VALID,23.09,VALID,83,VALID,0,
2011-01-27, 03:23:04,VALID,1008.98,VALID,0,VALID,102.727,VALID,0.105969,VALID,23.1095,VALID,83,VALID,0,
2011-01-27, 03:24:04,VALID,1008.99,VALID,0,VALID,102.742,VALID,0,VALID,23.1095,VALID,83,VALID,0.380859,
2011-01-27, 03:25:04,VALID,1008.98,VALID,0,VALID,102.742,VALID,0.105969,VALID,23.0688,VALID,83,VALID,0.0949219,
2011-01-27, 03:26:04,VALID,1009.01,VALID,0,VALID,102.78,VALID,0.105969,VALID,23.0493,VALID,83,VALID,0.342578,
2011-01-27, 03:27:04,VALID,1008.99,VALID,0,VALID,102.772,VALID,0.105969,VALID,23.0705,VALID,83,VALID,0.536719,
2011-01-27, 03:28:04,VALID,1008.96,VALID,0,VALID,102.795,VALID,0,VALID,23.0705,VALID,83,VALID,0.417188,
2011-01-27, 03:29:04,VALID,1008.97,VALID,0,VALID,102.765,VALID,0,VALID,23.09,VALID,83,VALID,0,
2011-01-27, 03:30:04,VALID,1008.94,VALID,0,VALID,102.749,VALID,0.105969,VALID,23.0688,VALID,83,VALID,0,
2011-01-27, 03:31:04,VALID,1008.96,VALID,0,VALID,102.742,VALID,0.105969,VALID,23.09,VALID,83,VALID,0,
2011-01-27, 03:32:04,VALID,1008.98,VALID,0,VALID,102.742,VALID,0,VALID,23.0883,VALID,83,VALID,0,
2011-01-27, 03:33:04,VALID,1008.97,VALID,0,VALID,102.711,VALID,0.105969,VALID,23.1077,VALID,83,VALID,0,
2011-01-27, 03:34:04,VALID,1008.98,VALID,0,VALID,102.742,VALID,0.105969,VALID,23.0883,VALID,83,VALID,0,
2011-01-27, 03:35:04,VALID,1008.98,VALID,0,VALID,102.734,VALID,0,VALID,23.09,VALID,83,VALID,0,
2011-01-27, 03:36:04,VALID,1008.95,VALID,0,VALID,102.704,VALID,0.105969,VALID,23.0883,VALID,83,VALID,0,
2011-01-27, 03:37:04,VALID,1008.98,VALID,0,VALID,102.734,VALID,0.105969,VALID,23.0883,VALID,83,VALID,0,
2011-01-27, 03:38:04,VALID,1008.94,VALID,0,VALID,102.734,VALID,0.105969,VALID,23.0883,VALID,83,VALID,0,
2011-01-27, 03:39:04,VALID,1008.93,VALID,0,VALID,102.727,VALID,0.105969,VALID,23.09,VALID,83,VALID,0,
2011-01-27, 03:40:04,VALID,1008.95,VALID,0,VALID,102.742,VALID,0.105969,VALID,23.0688,VALID,83,VALID,0,
2011-01-27, 03:41:04,VALID,1008.92,VALID,0,VALID,102.727,VALID,0.105969,VALID,23.09,VALID,83,VALID,0,
2011-01-27, 03:42:04,VALID,1008.94,VALID,0,VALID,102.749,VALID,0.105969,VALID,23.0688,VALID,83,VALID,0,
2011-01-27, 03:43:04,VALID,1008.95,VALID,0,VALID,102.772,VALID,0,VALID,23.0705,VALID,83,VALID,0,
2011-01-27, 03:44:04,VALID,1008.96,VALID,0,VALID,102.772,VALID,0,VALID,23.0705,VALID,83,VALID,0,
2011-01-27, 03:45:04,VALID,1008.98,VALID,0,VALID,102.78,VALID,0.105969,VALID,23.0493,VALID,83,VALID,0,
2011-01-27, 03:46:04,VALID,1008.99,VALID,0,VALID,102.772,VALID,0.105969,VALID,23.0298,VALID,83,VALID,0,
2011-01-27, 03:47:04,VALID,1008.94,VALID,0,VALID,102.772,VALID,0.105969,VALID,23.0103,VALID,83,VALID,0,
2011-01-27, 03:48:04,VALID,1008.92,VALID,0,VALID,102.765,VALID,0.105969,VALID,23.0316,VALID,83,VALID,0,
2011-01-27, 03:49:04,VALID,1008.86,VALID,0,VALID,102.749,VALID,0.105969,VALID,23.0316,VALID,83,VALID,0,
2011-01-27, 03:50:04,VALID,1008.87,VALID,0,VALID,102.765,VALID,0,VALID,23.0103,VALID,83,VALID,0,